,,Stat6,,Stat2,,Stat8,,Stat9,,Stat10,,Wind1,,Wind1,
time,status,PA1M_AVG,status,PR1M_SUM,status,RH1M_AVG,status,SR1M_AVG,status,TA1M_AVG,status,W1dAve1m,status,W1sAve1m,
2007-06-27, 00:00:00,VALID,916.45,VALID,0,VALID,97.808,VALID,-0.0679233,VALID,20.7139,VALID,24,VALID,0.731641,
2007-06-27, 00:01:00,VALID,916.478,VALID,0,VALID,97.8729,VALID,-0.0849042,VALID,20.7328,VALID,23,VALID,0.379616,
2007-06-27, 00:02:00,VALID,916.491,VALID,0,VALID,97.8411,VALID,-0.0849042,VALID,20.7333,VALID,22,VALID,0.116279,
2007-06-27, 00:03:00,VALID,916.49,VALID,0,VALID,97.9708,VALID,-0.101885,VALID,20.7363,VALID,24,VALID,0.386719,
2007-06-27, 00:04:00,VALID,916.507,VALID,0,VALID,97.8627,VALID,-0.0849042,VALID,20.7301,VALID,28,VALID,0.509673,
2007-06-27, 00:05:00,VALID,916.497,VALID,0,VALID,97.9072,VALID,-0.0679233,VALID,20.7168,VALID,35,VALID,0.587109,
2007-06-27, 00:06:00,VALID,916.501,VALID,0,VALID,97.9822,VALID,-0.0849042,VALID,20.7401,VALID,44,VALID,0.464844,
2007-06-27, 00:07:00,VALID,916.494,VALID,0,VALID,98.0293,VALID,-0.0679233,VALID,20.7398,VALID,35,VALID,0.349201,
2007-06-27, 00:08:00,VALID,916.505,VALID,0,VALID,98.056,VALID,-0.0679233,VALID,20.7528,VALID,32,VALID,0.282738,
2007-06-27, 00:09:00,VALID,916.512,VALID,0,VALID,98.0509,VALID,-0.0849042,VALID,20.762,VALID,29,VALID,0.280887,
2007-06-27, 00:10:00,VALID,916.508,VALID,0,VALID,97.9708,VALID,-0.0849042,VALID,20.7588,VALID,16,VALID,0.768229,
2007-06-27, 00:11:00,VALID,916.489,VALID,0,VALID,97.8868,VALID,-0.0679233,VALID,20.7593,VALID,33,VALID,0.886052,
2007-06-27, 00:12:00,VALID,916.482,VALID,0,VALID,97.8678,VALID,-0.0849042,VALID,20.7523,VALID,34,VALID,0.64826,
2007-06-27, 00:13:00,VALID,916.482,VALID,0,VALID,97.883,VALID,-0.0849042,VALID,20.7555,VALID,33,VALID,0.773983,
2007-06-27, 00:14:00,VALID,916.48,VALID,0,VALID,97.8284,VALID,-0.101885,VALID,20.762,VALID,33,VALID,0.568537,
2007-06-27, 00:15:00,VALID,916.486,VALID,0,VALID,97.7622,VALID,-0.0509425,VALID,20.7788,VALID,33,VALID,0.339367,
2007-06-27, 00:16:00,VALID,916.49,VALID,0,VALID,97.6643,VALID,-0.0679233,VALID,20.7755,VALID,34,VALID,0.281944,
2007-06-27, 00:17:00,VALID,916.48,VALID,0,VALID,97.6503,VALID,-0.118866,VALID,20.7493,VALID,319,VALID,0.528516,
2007-06-27, 00:18:00,VALID,916.477,VALID,0,VALID,97.7902,VALID,-0.0849042,VALID,20.7328,VALID,352,VALID,0.667492,
2007-06-27, 00:19:00,VALID,916.482,VALID,0,VALID,97.9339,VALID,-0.0679233,VALID,20.7198,VALID,31,VALID,1.11663,
2007-06-27, 00:20:00,VALID,916.48,VALID,0,VALID,98.0903,VALID,-0.0339617,VALID,20.6874,VALID,48,VALID,1.02604,
2007-06-27, 00:21:00,VALID,916.467,VALID,0,VALID,98.3637,VALID,-0.0339617,VALID,20.6582,VALID,56,VALID,1.09266,
2007-06-27, 00:22:00,VALID,916.464,VALID,0,VALID,98.501,VALID,-0.0509425,VALID,20.6587,VALID,61,VALID,0.84082,
2007-06-27, 00:23:00,VALID,916.471,VALID,0,VALID,98.585,VALID,-0.0679233,VALID,20.6517,VALID,45,VALID,0.720796,
2007-06-27, 00:24:00,VALID,916.466,VALID,0,VALID,98.6791,VALID,-0.0849042,VALID,20.6552,VALID,40,VALID,0.558594,
2007-06-27, 00:25:01,VALID,916.478,VALID,0,VALID,98.6282,VALID,-0.0849042,VALID,20.6549,VALID,40,VALID,0.312322,
2007-06-27, 00:26:01,VALID,916.475,VALID,0,VALID,98.4705,VALID,-0.0509425,VALID,20.6487,VALID,34,VALID,0.455163,
2007-06-27, 00:27:00,VALID,916.473,VALID,0,VALID,98.3497,VALID,-0.0849042,VALID,20.6165,VALID,33,VALID,0.341206,
2007-06-27, 00:28:00,VALID,916.469,VALID,0,VALID,98.4718,VALID,-0.0679233,VALID,20.603,VALID,33,VALID,0.43564,
2007-06-27, 00:29:00,VALID,916.459,VALID,0,VALID,98.6854,VALID,-0.0339617,VALID,20.6322,VALID,33,VALID,0.346418,
2007-06-27, 00:30:01,VALID,916.435,VALID,0,VALID,98.6078,VALID,-0.0169808,VALID,20.6509,VALID,20,VALID,0.707217,
2007-06-27, 00:31:01,VALID,916.433,VALID,0,VALID,98.5455,VALID,0,VALID,20.6279,VALID,4,VALID,0.692383,
2007-06-27, 00:32:01,VALID,916.434,VALID,0,VALID,98.6435,VALID,0.0169808,VALID,20.6084,VALID,352,VALID,0.569618,
2007-06-27, 00:33:00,VALID,916.415,VALID,0,VALID,98.7795,VALID,0.0169808,VALID,20.6017,VALID,28,VALID,0.577934,
2007-06-27, 00:34:00,VALID,916.411,VALID,0,VALID,98.8622,VALID,0.0339617,VALID,20.6079,VALID,32,VALID,0.564406,
2007-06-27, 00:35:01,VALID,916.413,VALID,0,VALID,98.9016,VALID,0.0679233,VALID,20.6309,VALID,25,VALID,0.403706,
2007-06-27, 00:36:00,VALID,916.414,VALID,0,VALID,98.8202,VALID,0.0339617,VALID,20.6144,VALID,12,VALID,0.135417,
2007-06-27, 00:37:01,VALID,916.448,VALID,0,VALID,98.8126,VALID,0.0679233,VALID,20.6179,VALID,12,VALID,0,
2007-06-27, 00:38:00,VALID,916.463,VALID,0,VALID,98.8749,VALID,0.0509425,VALID,20.6212,VALID,6,VALID,0.322311,
2007-06-27, 00:39:00,VALID,916.467,VALID,0,VALID,98.9283,VALID,0,VALID,20.6244,VALID,356,VALID,0.197218,
2007-06-27, 00:40:00,VALID,916.475,VALID,0,VALID,98.9537,VALID,0.0509425,VALID,20.6339,VALID,356,VALID,0.0626776,
2007-06-27, 00:41:01,VALID,916.487,VALID,0,VALID,98.9957,VALID,0.0169808,VALID,20.6369,VALID,356,VALID,0.0316406,
2007-06-27, 00:42:01,VALID,916.491,VALID,0,VALID,99.0338,VALID,0.0509425,VALID,20.6369,VALID,1,VALID,0.421503,
2007-06-27, 00:43:00,VALID,916.508,VALID,0,VALID,99.0313,VALID,0.0509425,VALID,20.6433,VALID,21,VALID,0.727865,
2007-06-27, 00:44:01,VALID,916.533,VALID,0,VALID,98.9906,VALID,0.0509425,VALID,20.6536,VALID,26,VALID,0.687119,
2007-06-27, 00:45:00,VALID,916.543,VALID,0,VALID,98.9779,VALID,-0.0339617,VALID,20.6604,VALID,26,VALID,0.604688,
2007-06-27, 00:46:00,VALID,916.532,VALID,0,VALID,98.6269,VALID,0.0169808,VALID,20.6371,VALID,26,VALID,0.361919,
2007-06-27, 00:47:00,VALID,916.522,VALID,0,VALID,98.6485,VALID,0,VALID,20.6339,VALID,26,VALID,0.00508721,
2007-06-27, 00:48:00,VALID,916.502,VALID,0,VALID,98.6307,VALID,-0.0339617,VALID,20.6374,VALID,26,VALID,0.265443,
2007-06-27, 00:49:00,VALID,916.483,VALID,0,VALID,98.5392,VALID,-0.0169808,VALID,20.6404,VALID,27,VALID,0.797238,
2007-06-27, 00:50:00,VALID,916.482,VALID,0,VALID,98.4921,VALID,-0.0339617,VALID,20.6344,VALID,32,VALID,0.6788,
2007-06-27, 00:51:00,VALID,916.48,VALID,0,VALID,98.4985,VALID,0,VALID,20.6176,VALID,32,VALID,0.633721,
2007-06-27, 00:52:00,VALID,916.467,VALID,0,VALID,98.4909,VALID,0,VALID,20.6119,VALID,33,VALID,0.825267,
2007-06-27, 00:53:00,VALID,916.462,VALID,0,VALID,98.5112,VALID,-0.0339617,VALID,20.599,VALID,35,VALID,0.651228,
2007-06-27, 00:54:00,VALID,916.468,VALID,0,VALID,98.3904,VALID,0.0169808,VALID,20.5825,VALID,35,VALID,0.315589,
2007-06-27, 00:55:00,VALID,916.469,VALID,0,VALID,98.2467,VALID,0,VALID,20.5433,VALID,35,VALID,0.161932,
2007-06-27, 00:56:00,VALID,916.461,VALID,0,VALID,98.2238,VALID,-0.0339617,VALID,20.5081,VALID,35,VALID,0.0234375,
2007-06-27, 00:57:00,VALID,916.444,VALID,0,VALID,98.3306,VALID,0,VALID,20.4851,VALID,35,VALID,0.0205966,
2007-06-27, 00:58:01,VALID,916.425,VALID,0,VALID,98.4171,VALID,-0.0339617,VALID,20.4759,VALID,35,VALID,0,
2007-06-27, 00:59:00,VALID,916.414,VALID,0,VALID,98.4731,VALID,-0.0339617,VALID,20.4691,VALID,35,VALID,0,
2007-06-27, 01:00:00,VALID,916.416,VALID,0,VALID,98.4527,VALID,-0.0169808,VALID,20.4597,VALID,35,VALID,0,
2007-06-27, 01:01:00,VALID,916.401,VALID,0,VALID,98.5112,VALID,-0.0339617,VALID,20.4491,VALID,35,VALID,0.0109797,
2007-06-27, 01:02:00,VALID,916.409,VALID,0,VALID,98.4692,VALID,-0.0339617,VALID,20.4632,VALID,35,VALID,0.0205966,
2007-06-27, 01:03:01,VALID,916.408,VALID,0,VALID,98.5265,VALID,-0.0339617,VALID,20.4497,VALID,35,VALID,0.000390625,
2007-06-27, 01:04:00,VALID,916.403,VALID,0,VALID,98.5595,VALID,0,VALID,20.4459,VALID,35,VALID,0.00674716,
2007-06-27, 01:05:00,VALID,916.408,VALID,0,VALID,98.6066,VALID,-0.0169808,VALID,20.4591,VALID,35,VALID,0.47311,
2007-06-27, 01:06:00,VALID,916.422,VALID,0,VALID,98.59,VALID,-0.0339617,VALID,20.4456,VALID,35,VALID,0.419457,
2007-06-27, 01:07:00,VALID,916.428,VALID,0,VALID,98.5455,VALID,-0.0339617,VALID,20.4427,VALID,35,VALID,0.403343,
2007-06-27, 01:08:00,VALID,916.445,VALID,0,VALID,98.4527,VALID,-0.0509425,VALID,20.4164,VALID,35,VALID,0.426314,
2007-06-27, 01:09:00,VALID,916.453,VALID,0,VALID,98.4794,VALID,-0.0169808,VALID,20.4037,VALID,35,VALID,0.0336806,
2007-06-27, 01:10:01,VALID,916.457,VALID,0,VALID,98.543,VALID,-0.0169808,VALID,20.3813,VALID,35,VALID,0.433984,
2007-06-27, 01:11:01,VALID,916.46,VALID,0,VALID,98.7261,VALID,-0.0169808,VALID,20.358,VALID,36,VALID,0.365767,
2007-06-27, 01:12:01,VALID,916.459,VALID,0,VALID,98.9054,VALID,-0.0169808,VALID,20.362,VALID,39,VALID,0.4758,
2007-06-27, 01:13:01,VALID,916.459,VALID,0,VALID,99.0466,VALID,-0.0339617,VALID,20.3561,VALID,43,VALID,0.564757,
2007-06-27, 01:14:00,VALID,916.465,VALID,0,VALID,99.0046,VALID,-0.0509425,VALID,20.3256,VALID,35,VALID,0.745028,
2007-06-27, 01:15:01,VALID,916.475,VALID,0,VALID,98.8647,VALID,-0.0509425,VALID,20.2866,VALID,33,VALID,0.444814,
2007-06-27, 01:16:01,VALID,916.49,VALID,0,VALID,98.8889,VALID,0,VALID,20.2577,VALID,33,VALID,0.14234,
2007-06-27, 01:17:01,VALID,916.501,VALID,0,VALID,99.0466,VALID,-0.0339617,VALID,20.2414,VALID,39,VALID,0.37391,
2007-06-27, 01:18:01,VALID,916.523,VALID,0,VALID,99.147,VALID,0,VALID,20.2444,VALID,21,VALID,0.682351,
2007-06-27, 01:19:01,VALID,916.546,VALID,0,VALID,99.2017,VALID,-0.0169808,VALID,20.2412,VALID,22,VALID,0.409028,
2007-06-27, 01:20:01,VALID,916.552,VALID,0,VALID,99.2297,VALID,0,VALID,20.225,VALID,35,VALID,0.711914,
2007-06-27, 01:21:01,VALID,916.564,VALID,0,VALID,99.3657,VALID,-0.0169808,VALID,20.212,VALID,41,VALID,0.703624,
2007-06-27, 01:22:01,VALID,916.563,VALID,0,VALID,99.4204,VALID,-0.0169808,VALID,20.2125,VALID,42,VALID,0.334032,
2007-06-27, 01:23:01,VALID,916.541,VALID,0,VALID,99.4636,VALID,-0.0169808,VALID,20.1993,VALID,42,VALID,0.458333,
2007-06-27, 01:24:01,VALID,916.543,VALID,0,VALID,99.6035,VALID,0,VALID,20.2255,VALID,42,VALID,0.245028,
2007-06-27, 01:25:00,VALID,916.527,VALID,0,VALID,99.6226,VALID,0,VALID,20.2347,VALID,42,VALID,0.0365854,
2007-06-27, 01:26:00,VALID,916.518,VALID,0,VALID,99.5755,VALID,-0.0169808,VALID,20.2477,VALID,30,VALID,0.407522,
2007-06-27, 01:27:00,VALID,916.52,VALID,0,VALID,99.5806,VALID,0,VALID,20.2639,VALID,26,VALID,0.852095,
2007-06-27, 01:28:00,VALID,916.492,VALID,0,VALID,99.4878,VALID,-0.0169808,VALID,20.2674,VALID,32,VALID,0.682422,
2007-06-27, 01:29:00,VALID,916.471,VALID,0,VALID,99.4585,VALID,-0.0169808,VALID,20.2577,VALID,38,VALID,1.42878,
2007-06-27, 01:30:00,VALID,916.44,VALID,0,VALID,99.5158,VALID,-0.0169808,VALID,20.2607,VALID,25,VALID,0.915698,
2007-06-27, 01:31:00,VALID,916.419,VALID,0,VALID,99.5056,VALID,0,VALID,20.2736,VALID,52,VALID,0.421181,
2007-06-27, 01:32:00,VALID,916.408,VALID,0,VALID,99.4446,VALID,-0.0339617,VALID,20.2834,VALID,62,VALID,0.231055,
2007-06-27, 01:33:00,VALID,916.424,VALID,0,VALID,99.4484,VALID,0,VALID,20.2964,VALID,119,VALID,0.293968,
2007-06-27, 01:34:00,VALID,916.466,VALID,0,VALID,99.4751,VALID,-0.0169808,VALID,20.3064,VALID,170,VALID,0.351563,
2007-06-27, 01:35:00,VALID,916.469,VALID,0,VALID,99.5259,VALID,-0.0169808,VALID,20.3333,VALID,86,VALID,0.495808,
2007-06-27, 01:36:00,VALID,916.448,VALID,0,VALID,99.5107,VALID,-0.0509425,VALID,20.3458,VALID,52,VALID,0.636896,
2007-06-27, 01:37:00,VALID,916.411,VALID,0,VALID,99.4535,VALID,-0.0169808,VALID,20.3688,VALID,51,VALID,0.45694,
2007-06-27, 01:38:00,VALID,916.402,VALID,0,VALID,99.4039,VALID,-0.0339617,VALID,20.388,VALID,50,VALID,0.337695,
2007-06-27, 01:39:00,VALID,916.406,VALID,0,VALID,99.2983,VALID,-0.0339617,VALID,20.3877,VALID,50,VALID,0.0379724,
2007-06-27, 01:40:00,VALID,916.41,VALID,0,VALID,99.236,VALID,0,VALID,20.3972,VALID,50,VALID,0.218378,
2007-06-27, 01:41:00,VALID,916.438,VALID,0,VALID,99.2449,VALID,-0.0339617,VALID,20.4005,VALID,50,VALID,0.311228,
2007-06-27, 01:42:00,VALID,916.433,VALID,0,VALID,99.3581,VALID,-0.0339617,VALID,20.4167,VALID,50,VALID,0.252976,
2007-06-27, 01:43:00,VALID,916.44,VALID,0,VALID,99.409,VALID,-0.0339617,VALID,20.4391,VALID,50,VALID,0.324123,
2007-06-27, 01:44:00,VALID,916.447,VALID,0,VALID,99.2983,VALID,-0.0509425,VALID,20.4467,VALID,45,VALID,0.555259,
2007-06-27, 01:45:00,VALID,916.45,VALID,0,VALID,99.1445,VALID,-0.0849042,VALID,20.4245,VALID,33,VALID,0.668423,
2007-06-27, 01:46:00,VALID,916.424,VALID,0,VALID,99.2805,VALID,-0.0509425,VALID,20.405,VALID,43,VALID,0.93388,
2007-06-27, 01:47:00,VALID,916.417,VALID,0,VALID,99.3403,VALID,-0.0849042,VALID,20.4047,VALID,39,VALID,1.44478,
2007-06-27, 01:48:00,VALID,916.405,VALID,0,VALID,99.3441,VALID,-0.101885,VALID,20.3983,VALID,45,VALID,1.23165,
2007-06-27, 01:49:00,VALID,916.393,VALID,0,VALID,99.3619,VALID,-0.0849042,VALID,20.4018,VALID,24,VALID,0.56359,
2007-06-27, 01:50:00,VALID,916.403,VALID,0,VALID,99.3187,VALID,-0.0849042,VALID,20.4085,VALID,23,VALID,0.397135,
2007-06-27, 01:51:00,VALID,916.438,VALID,0,VALID,99.292,VALID,-0.0679233,VALID,20.4053,VALID,23,VALID,0.162609,
2007-06-27, 01:52:00,VALID,916.441,VALID,0,VALID,99.2093,VALID,-0.101885,VALID,20.3953,VALID,23,VALID,0.0574128,
2007-06-27, 01:53:00,VALID,916.443,VALID,0,VALID,98.8634,VALID,-0.101885,VALID,20.3433,VALID,33,VALID,0.932173,
2007-06-27, 01:54:00,VALID,916.443,VALID,0,VALID,98.6905,VALID,-0.101885,VALID,20.2719,VALID,22,VALID,0.771205,
2007-06-27, 01:55:00,VALID,916.471,VALID,0,VALID,98.9105,VALID,-0.0849042,VALID,20.2527,VALID,23,VALID,0.561098,
2007-06-27, 01:56:00,VALID,916.475,VALID,0,VALID,98.969,VALID,-0.0849042,VALID,20.2425,VALID,23,VALID,0.222973,
2007-06-27, 01:57:00,VALID,916.466,VALID,0,VALID,99.0733,VALID,-0.135847,VALID,20.2557,VALID,23,VALID,0.0790334,
2007-06-27, 01:58:00,VALID,916.42,VALID,0,VALID,99.2068,VALID,-0.101885,VALID,20.2689,VALID,23,VALID,0.332849,
2007-06-27, 01:59:00,VALID,916.411,VALID,0,VALID,99.1597,VALID,-0.101885,VALID,20.2649,VALID,22,VALID,0.893787,
2007-06-27, 02:00:00,VALID,916.428,VALID,0,VALID,99.072,VALID,0,VALID,20.2447,VALID,342,VALID,0.938388,
2007-06-27, 02:01:00,VALID,916.455,VALID,0,VALID,99.1203,VALID,-0.0169808,VALID,20.2282,VALID,42,VALID,0.692361,
2007-06-27, 02:02:00,VALID,916.437,VALID,0,VALID,99.1292,VALID,0,VALID,20.2255,VALID,35,VALID,0.660823,
2007-06-27, 02:03:00,VALID,916.417,VALID,0,VALID,99.1521,VALID,0,VALID,20.199,VALID,31,VALID,0.965116,
2007-06-27, 02:04:00,VALID,916.412,VALID,0,VALID,99.2983,VALID,-0.0169808,VALID,20.199,VALID,29,VALID,0.981957,
2007-06-27, 02:05:00,VALID,916.401,VALID,0,VALID,99.3098,VALID,0,VALID,20.183,VALID,4,VALID,0.387649,
2007-06-27, 02:06:00,VALID,916.37,VALID,0,VALID,99.4764,VALID,-0.0849042,VALID,20.1841,VALID,4,VALID,0,
2007-06-27, 02:07:00,VALID,916.348,VALID,0,VALID,99.5488,VALID,-0.0849042,VALID,20.1841,VALID,4,VALID,0,
2007-06-27, 02:08:00,VALID,916.348,VALID,0,VALID,99.6468,VALID,-0.0849042,VALID,20.1808,VALID,4,VALID,0.00111607,
2007-06-27, 02:09:00,VALID,916.348,VALID,0,VALID,99.7434,VALID,-0.101885,VALID,20.1841,VALID,4,VALID,0.108103,
2007-06-27, 02:10:00,VALID,916.336,VALID,0,VALID,99.6353,VALID,-0.101885,VALID,20.1905,VALID,12,VALID,0.607031,
2007-06-27, 02:11:00,VALID,916.313,VALID,0,VALID,99.5145,VALID,-0.101885,VALID,20.1711,VALID,55,VALID,0.501828,
2007-06-27, 02:12:00,VALID,916.282,VALID,0,VALID,99.4484,VALID,-0.101885,VALID,20.1648,VALID,60,VALID,0.0238009,
2007-06-27, 02:13:00,VALID,916.27,VALID,0,VALID,99.4929,VALID,-0.101885,VALID,20.1583,VALID,60,VALID,0,
2007-06-27, 02:14:00,VALID,916.226,VALID,0,VALID,99.4764,VALID,-0.0849042,VALID,20.1449,VALID,60,VALID,0.395633,
2007-06-27, 02:15:00,VALID,916.207,VALID,0,VALID,99.4903,VALID,0,VALID,20.1306,VALID,50,VALID,0.882068,
2007-06-27, 02:16:00,VALID,916.211,VALID,0,VALID,99.4865,VALID,0.0169808,VALID,20.1114,VALID,35,VALID,1.07937,
2007-06-27, 02:17:00,VALID,916.24,VALID,0,VALID,99.4903,VALID,0.0169808,VALID,20.0952,VALID,29,VALID,0.874047,
2007-06-27, 02:18:00,VALID,916.259,VALID,0,VALID,99.5234,VALID,0,VALID,20.0627,VALID,29,VALID,0.430596,
2007-06-27, 02:19:00,VALID,916.238,VALID,0,VALID,99.6188,VALID,0,VALID,20.0392,VALID,29,VALID,0.118608,
2007-06-27, 02:20:00,VALID,916.192,VALID,0,VALID,99.6785,VALID,0,VALID,20.0462,VALID,29,VALID,0.539444,
2007-06-27, 02:21:00,VALID,916.15,VALID,0,VALID,99.6773,VALID,0.0509425,VALID,20.0293,VALID,22,VALID,0.8621,
2007-06-27, 02:22:00,VALID,916.157,VALID,0,VALID,99.5018,VALID,0.0169808,VALID,20.0073,VALID,27,VALID,0.848474,
2007-06-27, 02:23:00,VALID,916.171,VALID,0,VALID,99.6315,VALID,0.0509425,VALID,19.9684,VALID,359,VALID,0.708147,
2007-06-27, 02:24:00,VALID,916.169,VALID,0,VALID,99.9624,VALID,0,VALID,19.9651,VALID,321,VALID,0.539418,
2007-06-27, 02:25:00,VALID,916.13,VALID,0,VALID,100,VALID,0.0169808,VALID,19.9751,VALID,352,VALID,0.561047,
2007-06-27, 02:26:00,VALID,916.108,VALID,0,VALID,100,VALID,0,VALID,19.9783,VALID,360,VALID,0.539063,
2007-06-27, 02:27:00,VALID,916.078,VALID,0,VALID,99.9977,VALID,0,VALID,19.9684,VALID,2,VALID,0.447917,
2007-06-27, 02:28:00,VALID,916.049,VALID,0,VALID,99.9163,VALID,0,VALID,19.9459,VALID,6,VALID,0.597747,
2007-06-27, 02:29:00,VALID,916.034,VALID,0,VALID,99.8553,VALID,0,VALID,19.91,VALID,21,VALID,0.933966,
2007-06-27, 02:30:00,VALID,916.033,VALID,0,VALID,99.8871,VALID,0,VALID,19.8972,VALID,24,VALID,0.46875,
2007-06-27, 02:31:00,VALID,916.017,VALID,0,VALID,99.968,VALID,0,VALID,19.8877,VALID,24,VALID,0.315304,
2007-06-27, 02:32:00,VALID,915.994,VALID,0,VALID,99.9819,VALID,0.0169808,VALID,19.8713,VALID,24,VALID,0.425,
2007-06-27, 02:33:00,VALID,915.985,VALID,0,VALID,100,VALID,0.0679233,VALID,19.8513,VALID,24,VALID,0.499273,
2007-06-27, 02:34:00,VALID,915.981,VALID,0,VALID,99.9278,VALID,0.0169808,VALID,19.8161,VALID,24,VALID,0.770647,
2007-06-27, 02:35:00,VALID,916.005,VALID,0,VALID,99.7688,VALID,0.0169808,VALID,19.7542,VALID,24,VALID,0.69186,
2007-06-27, 02:36:00,VALID,916.007,VALID,0,VALID,99.8527,VALID,0.0169808,VALID,19.7185,VALID,24,VALID,0.40625,
2007-06-27, 02:37:00,VALID,915.973,VALID,0,VALID,99.9865,VALID,0.0339617,VALID,19.6958,VALID,24,VALID,0.600852,
2007-06-27, 02:38:00,VALID,915.956,VALID,0,VALID,100,VALID,0.0169808,VALID,19.6636,VALID,29,VALID,0.859947,
2007-06-27, 02:39:00,VALID,915.968,VALID,0,VALID,100,VALID,0.0339617,VALID,19.6696,VALID,40,VALID,0.686012,
2007-06-27, 02:40:00,VALID,915.99,VALID,0,VALID,100,VALID,0.0169808,VALID,19.6831,VALID,40,VALID,0.453852,
2007-06-27, 02:41:00,VALID,916.007,VALID,0,VALID,100,VALID,0.0509425,VALID,19.7055,VALID,8,VALID,0.550223,
2007-06-27, 02:42:00,VALID,916.013,VALID,0,VALID,100,VALID,0.0339617,VALID,19.7445,VALID,336,VALID,0.231027,
2007-06-27, 02:43:00,VALID,915.987,VALID,0,VALID,100,VALID,0,VALID,19.7634,VALID,336,VALID,0.187137,
2007-06-27, 02:44:00,VALID,915.966,VALID,0,VALID,100,VALID,0.0169808,VALID,19.7415,VALID,9,VALID,0.695871,
2007-06-27, 02:45:00,VALID,915.952,VALID,0,VALID,100,VALID,0,VALID,19.6896,VALID,28,VALID,0.841694,
2007-06-27, 02:46:00,VALID,915.896,VALID,0,VALID,100,VALID,0.0509425,VALID,19.7053,VALID,34,VALID,0.650484,
2007-06-27, 02:47:00,VALID,915.864,VALID,0,VALID,100,VALID,0.0169808,VALID,19.7148,VALID,37,VALID,0.634527,
2007-06-27, 02:48:00,VALID,915.9,VALID,0,VALID,100,VALID,0.0339617,VALID,19.7016,VALID,21,VALID,0.418576,
2007-06-27, 02:49:00,VALID,915.919,VALID,0,VALID,100,VALID,0.0169808,VALID,19.712,VALID,21,VALID,0.178354,
2007-06-27, 02:50:00,VALID,915.927,VALID,0,VALID,100,VALID,0.0849042,VALID,19.708,VALID,21,VALID,0.129514,
2007-06-27, 02:51:00,VALID,915.916,VALID,0,VALID,100,VALID,0.0509425,VALID,19.718,VALID,21,VALID,0.439732,
2007-06-27, 02:52:00,VALID,915.942,VALID,0,VALID,100,VALID,0.0509425,VALID,19.6981,VALID,21,VALID,0.386083,
2007-06-27, 02:53:00,VALID,915.951,VALID,0,VALID,100,VALID,0.0339617,VALID,19.6621,VALID,21,VALID,0.486235,
2007-06-27, 02:54:00,VALID,915.925,VALID,0,VALID,100,VALID,0.0679233,VALID,19.6299,VALID,27,VALID,1.26354,
2007-06-27, 02:55:00,VALID,915.9,VALID,0,VALID,100,VALID,0.0679233,VALID,19.6524,VALID,32,VALID,1.56953,
2007-06-27, 02:56:00,VALID,915.884,VALID,0,VALID,100,VALID,0.0339617,VALID,19.6918,VALID,30,VALID,1.44844,
2007-06-27, 02:57:00,VALID,915.889,VALID,0,VALID,100,VALID,0.0339617,VALID,19.7085,VALID,29,VALID,1.02805,
2007-06-27, 02:58:00,VALID,915.923,VALID,0,VALID,100,VALID,0.0339617,VALID,19.7016,VALID,25,VALID,0.78404,
2007-06-27, 02:59:00,VALID,915.914,VALID,0,VALID,100,VALID,0,VALID,19.6988,VALID,25,VALID,0.882431,
2007-06-27, 03:00:00,VALID,915.915,VALID,0,VALID,100,VALID,-0.101885,VALID,19.7133,VALID,26,VALID,0.67024,
2007-06-27, 03:01:00,VALID,915.911,VALID,0,VALID,100,VALID,-0.0509425,VALID,19.7258,VALID,34,VALID,0.993096,
2007-06-27, 03:02:00,VALID,915.939,VALID,0,VALID,100,VALID,-0.0509425,VALID,19.7357,VALID,26,VALID,0.728849,
2007-06-27, 03:03:00,VALID,915.961,VALID,0,VALID,100,VALID,-0.0849042,VALID,19.7295,VALID,26,VALID,0.370486,
2007-06-27, 03:04:00,VALID,915.959,VALID,0,VALID,100,VALID,-0.0679233,VALID,19.7295,VALID,26,VALID,0.57706,
2007-06-27, 03:05:00,VALID,915.948,VALID,0,VALID,100,VALID,-0.0679233,VALID,19.7293,VALID,32,VALID,1.07489,
2007-06-27, 03:06:00,VALID,915.94,VALID,0,VALID,100,VALID,-0.0509425,VALID,19.7425,VALID,28,VALID,0.800409,
2007-06-27, 03:07:00,VALID,915.918,VALID,0,VALID,100,VALID,-0.0849042,VALID,19.7452,VALID,28,VALID,0.689732,
2007-06-27, 03:08:00,VALID,915.928,VALID,0,VALID,100,VALID,-0.0169808,VALID,19.7482,VALID,31,VALID,0.91276,
2007-06-27, 03:09:00,VALID,915.93,VALID,0,VALID,100,VALID,-0.0509425,VALID,19.759,VALID,36,VALID,0.606585,
2007-06-27, 03:10:00,VALID,915.936,VALID,0,VALID,100,VALID,-0.0849042,VALID,19.7515,VALID,33,VALID,0.731213,
2007-06-27, 03:11:00,VALID,915.943,VALID,0,VALID,100,VALID,-0.0509425,VALID,19.758,VALID,18,VALID,0.287064,
2007-06-27, 03:12:00,VALID,915.96,VALID,0,VALID,100,VALID,-0.0339617,VALID,19.7612,VALID,18,VALID,0.0150799,
2007-06-27, 03:13:00,VALID,915.949,VALID,0,VALID,100,VALID,-0.0679233,VALID,19.7712,VALID,18,VALID,0,
2007-06-27, 03:14:00,VALID,915.945,VALID,0,VALID,100,VALID,-0.0509425,VALID,19.7941,VALID,18,VALID,0,
2007-06-27, 03:15:00,VALID,915.944,VALID,0,VALID,100,VALID,0,VALID,19.7864,VALID,18,VALID,0.0904796,
2007-06-27, 03:16:00,VALID,915.946,VALID,0,VALID,100,VALID,0,VALID,19.7804,VALID,18,VALID,0.0854048,
2007-06-27, 03:17:00,VALID,915.948,VALID,0,VALID,100,VALID,0.0169808,VALID,19.7572,VALID,18,VALID,0.121951,
2007-06-27, 03:18:00,VALID,915.939,VALID,0,VALID,100,VALID,-0.0169808,VALID,19.7472,VALID,18,VALID,0.371003,
2007-06-27, 03:19:00,VALID,915.893,VALID,0,VALID,100,VALID,0.0169808,VALID,19.7545,VALID,27,VALID,0.784598,
2007-06-27, 03:20:00,VALID,915.873,VALID,0,VALID,100,VALID,0,VALID,19.7178,VALID,36,VALID,1.2408,
2007-06-27, 03:21:00,VALID,915.863,VALID,0,VALID,100,VALID,0.0509425,VALID,19.7313,VALID,31,VALID,0.716211,
2007-06-27, 03:22:00,VALID,915.836,VALID,0,VALID,100,VALID,0.0679233,VALID,19.7275,VALID,32,VALID,0.768169,
2007-06-27, 03:23:00,VALID,915.803,VALID,0,VALID,100,VALID,0.0679233,VALID,19.7048,VALID,32,VALID,1.15916,
2007-06-27, 03:24:00,VALID,915.794,VALID,0,VALID,100,VALID,0.0679233,VALID,19.711,VALID,33,VALID,1.5125,
2007-06-27, 03:25:00,VALID,915.77,VALID,0,VALID,100,VALID,0,VALID,19.7345,VALID,37,VALID,1.19903,
2007-06-27, 03:26:00,VALID,915.778,VALID,0,VALID,100,VALID,0.0679233,VALID,19.7273,VALID,36,VALID,0.928052,
2007-06-27, 03:27:00,VALID,915.79,VALID,0,VALID,100,VALID,0.0339617,VALID,19.738,VALID,34,VALID,0.122456,
2007-06-27, 03:28:00,VALID,915.791,VALID,0,VALID,100,VALID,0.0169808,VALID,19.7545,VALID,34,VALID,0.139717,
2007-06-27, 03:29:00,VALID,915.78,VALID,0,VALID,100,VALID,0.0339617,VALID,19.7313,VALID,34,VALID,0.00568182,
2007-06-27, 03:30:00,VALID,915.786,VALID,0,VALID,100,VALID,0,VALID,19.7275,VALID,34,VALID,0.29652,
2007-06-27, 03:31:00,VALID,915.802,VALID,0,VALID,100,VALID,-0.0169808,VALID,19.712,VALID,34,VALID,0.167783,
2007-06-27, 03:32:00,VALID,915.814,VALID,0,VALID,100,VALID,0,VALID,19.6958,VALID,34,VALID,0.0659299,
2007-06-27, 03:33:00,VALID,915.792,VALID,0,VALID,100,VALID,0,VALID,19.6891,VALID,34,VALID,0.639353,
2007-06-27, 03:34:00,VALID,915.796,VALID,0,VALID,100,VALID,-0.0169808,VALID,19.6731,VALID,35,VALID,0.809451,
2007-06-27, 03:35:00,VALID,915.856,VALID,0,VALID,100,VALID,0.0169808,VALID,19.6731,VALID,33,VALID,0.292878,